CALSPHERE 1 1 00900U 64063C 26263.98361139 .00000427 00000+0 42460-3 0 9998 2 00900 90.2179 73.9874 0026006 6.8250 155.6529 13.76708987 84609 CALSPHERE 2 1 00902U 64063E 26263.72410744 .00000031 00000+0 33275-4 0 9995 2 00902 90.2291 78.0400 0017166 314.3962 56.7386 13.52906459869185 LCS 1 1 01361U 65034C 26263.39379567 .00000014 00000+0 76944-3 0 9994 2 01361 32.1440 310.9779 0011116 100.2673 259.9078 9.89310770219312 TEMPSAT 1 1 01512U 65065E 26263.59783498 .00000044 00000+0 71884-4 0 9992 2 01512 90.0071 212.6158 0069261 342.3528 192.5007 13.33598819972769 CALSPHERE 4A 1 01520U 65065H 26263.93348630 .00000066 00000+0 10835-3 0 9996 2 01520 89.8892 121.5187 0069079 192.0319 299.0912 13.36291766975495 OPS 5712 (P/L 160) 1 02826U 67053A 26263.93017442 .00003891 00000+0 53897-3 0 9993 2 02826 69.9162 163.4181 0003823 268.4166 91.6544 14.78774828 80380 OPS 5712 (P/L 153) 1 02874U 67053H 26263.43485231 .00000012 00000+0 46773-4 0 9994 2 02874 69.9718 271.1473 0004710 60.1607 299.9967 13.96839647 20098 RIGIDSPHERE 2 (LCS 4) 1 05398U 71067E 26263.94702666 .00000341 00000+0 10508-3 0 9999 2 05398 87.6203 312.2301 0057428 275.1944 84.2704 14.37960153887640 COSMOS 2493 (SKRL-756 1) 1 39490U 13078A 26263.92710233 .00001498 00000+0 11046-3 0 9996 2 39490 82.4152 167.5040 0011177 283.2107 76.7871 15.02575647692333 COSMOS 2494 (SKRL-756 2) 1 39491U 13078B 26263.95038685 .00001317 00000+0 89886-4 0 9992 2 39491 82.4137 156.4681 0014338 235.7786 124.2083 15.05343876693214